sat.trackr.live / text

‹ back to catalog

STARLINK-36870

NORAD 67897 · 2026-035U

PAYLOAD ACTIVE UNKNOWN

§ Identity

Operator
Country
US
Launch date
2026-02-21
Launch site
AFWTR
Launch vehicle
Mass (kg)
RCS (m²)

Purposes: comms

External: N2YO · Heavens-Above · Gunter

§ Orbital elements

Epoch: 2026-05-25T01:20:34.123200Z

Period
93.91 min
Inclination
97.2838°
Eccentricity
0.0001543
Mean motion
15.33458671 rev/d
Perigee alt
464.4 km
Apogee alt
466.6 km
Semi-major
6,843.6 km
B*
5.4018e-4
RAAN
78.6193°
Arg perigee
104.4269°
Mean anomaly
255.7145°
Rev number
1,569

§ Raw data

STARLINK-368701 67897U 26035U   26145.05595050  .00017412  00000+0  54018-3 0  99952 67897  97.2838  78.6193 0001543 104.4269 255.7145 15.33458671 15692

JSON: /api/v1/satellites/67897 · /tle

For live sub-satellite position, see the globe view (requires WebGL).

§ Visibility from observer

Set your observer location to see the next 7 days of passes ≥ 10°. The values pass through the URL so the page stays shareable.

No JS? Fill the form by hand. The geolocation button needs JavaScript.